Vertical_Velocity
0 1 -1 0 1 0 1 1 1 0 1 1 1 1 1 0 0 1 -0 0 -0 -1 -0 -0 -0 -0 -2 -2 -0 -1 -1 -1 -1 -2 -2 -1 -1 -0 -2 -3 -3 -0 -1 -2 2 -1 3
1 -1 -1 -1 0 1 1 1 1 -0 -0 0 0 0 -0 -0 -0 0 0 -0 0 -0 -1 -1 -1 -1 -0 -0 -3 -1 -1 0 -1 -1 -1 -0 -1 -1 -3 -1 -1 -0 -1 -1 -1 -1 -1
-0 0 1 1 1 1 1 0 0 -0 -0 0 0 1 1 0 0 -1 -0 0 -1 -1 -1 -0 -1 -2 -2 -3 -1 -1 -1 -2 -2 -2 -1 -1 -1 -0 -0 -1 -1 -1 -1 -1 0 -2 -1
1 -0 -0 -1 -0 -0 -0 -0 -0 -0 0 -1 -1 1 -0 -0 -0 -1 -1 0 0 -0 -1 -1 -1 -0 -0 -1 -1 -1 -2 -2 -2 -2 -1 -2 -3 -3 -4 -2 -2 -0 -2 -4 -1 -1 -0
-1 -0 -0 0 0 -1 -1 -0 -1 -1 -1 -1 -1 -2 -1 0 -0 -1 -1 -0 0 1 -0 -1 -0 -0 -1 -1 0 -2 -2 -1 -1 -0 -1 -1 -1 -1 -0 0 -1 -4 -3 -1 -2 -2 -3
0 -1 -2 -2 -2 -2 -1 -0 -1 -2 -1 -0 -1 -1 -1 -0 -0 -0 -0 -1 -1 0 -0 -0 -1 -1 -0 -1 -1 -2 -1 -1 -1 -0 -0 -1 -0 -0 0 -0 -2 -0 -2 -3 -1 -3 -1
-1 -2 -1 -1 -1 -1 0 1 -1 -0 0 -0 -1 -1 -1 -0 -1 -0 -1 -0 -0 1 -0 -1 -1 -2 -1 -1 -1 -1 -1 -1 -1 -0 -0 -0 -1 -1 0 -3 -1 -0 -1 -1 0 2 -2
-1 -0 -0 -1 -0 -1 -2 -1 -1 -1 -1 -1 -1 -2 -1 -2 -2 -1 -0 -1 -1 -0 -0 -1 -1 -1 -1 -1 -1 -3 -1 -1 -0 -0 -0 -0 -1 -0 -1 -2 -1 -0 -1 1 3 -0 -2
-0 0 0 -0 0 0 -1 -1 -1 -2 -2 -1 -1 -1 -1 -2 -1 1 -0 -1 -1 -1 -1 -2 -2 -2 -2 -2 -1 -1 -2 -1 -1 -1 -1 -0 -1 -0 0 -1 -0 1 1 -0 2 -2 -1
-1 -1 -0 0 0 1 -1 -1 -1 -1 -1 -2 -2 -1 -1 -1 -1 -1 -1 -1 -1 -0 -1 -2 -2 -2 -2 -1 -1 -1 -1 -2 -3 -2 -1 -0 -3 -2 -1 -2 -2 -6 -2 -1 2 1 -2
-1 -1 -1 0 -1 -1 -2 -2 -2 -2 -1 -1 -1 -2 -2 -1 -0 -1 0 0 -0 -1 -3 -2 -1 -1 -1 -1 -1 -1 -1 -2 -1 -1 -3 -3 -3 -1 -1 -1 -2 -0 -2 -1 -0 -0 -0
-1 -1 -1 -1 -1 -1 -1 -1 -0 -1 -2 -2 -1 -2 -2 -2 -2 -1 -1 -1 -1 -1 -5 -2 -2 -1 -1 0 -1 -1 -1 -1 -2 -2 -1 -1 1 0 0 -1 -1 -3 -3 2 0 2 -0
-1 -1 -2 -1 -1 -0 -1 -1 -2 -2 -2 -1 -1 0 -0 -1 -1 -1 -0 -0 -2 -1 0 -1 -2 -2 -2 -2 -1 -0 -1 -1 -4 -4 -4 -2 -1 -2 -1 0 -2 -3 -4 -4 -6 -3 -4
-1 -2 -3 -2 -1 -1 -1 -0 -0 -1 -2 -1 -1 -1 -1 -1 -0 -0 -0 0 -1 -1 -2 -0 -1 -1 -0 -1 -2 -3 -3 -1 -2 -3 -4 -4 -7 -2 -4 -2 1 -0 -3 -0 -1 -1 -4
-0 -2 -1 -2 -2 -3 -3 -2 -2 -1 0 -2 -2 -2 -1 -2 -0 -0 -1 -1 0 -0 -1 -1 -1 -1 -2 -2 -2 -2 -2 -2 -2 -1 -4 -1 -5 -2 0 1 3 2 -1 -1 1 -0 0
0 1 -1 -1 -1 -3 -3 -1 -0 -2 -0 1 1 -1 -0 -0 -1 -1 -1 -1 -1 -1 -2 -2 -2 -2 -2 -1 -3 -2 -3 -1 -2 -1 -1 -2 -9 -1 -1 -1 -1 1 2 -1 -0 -1 -2
-2 -0 -1 -1 -1 -3 -2 -2 0 -1 1 -0 2 -1 -1 -0 -0 0 -2 -1 -0 1 0 -1 -2 -3 -1 -1 -1 -1 -1 -2 -1 -1 0 2 -1 -5 1 4 2 1 -1 0 -1 -0 -1
-0 -1 -1 0 -0 -0 0 -1 -2 -1 -3 -0 -1 1 0 1 -0 0 -1 -0 -1 -1 -1 -1 -1 -1 -1 -0 -4 -1 -2 1 1 2 -0 -1 -2 -4 -6 0 2 -0 -0 1 -1 -2 0
-3 -1 1 1 -1 1 -2 -1 -1 0 -2 -1 -1 -2 -1 1 -3 2 1 -0 0 0 1 -1 -0 -0 2 0 -1 -3 0 2 1 1 1 1 4 -4 -2 -2 -0 -1 -3 1 2 5 -5
1 0 -2 -0 2 -1 -0 1 -0 -1 -2 -4 -4 -0 -2 -0 1 -1 2 -1 0 1 2 2 0 2 2 -0 5 -3 -1 0 -1 1 0 4 -2 2 -9 -5 5 4 1 7 7 8 -7
-0 -4 -1 -2 -4 -3 -2 -2 0 1 -1 -2 0 -4 -1 -1 2 1 2 -1 2 3 0 1 -5 4 2 -3 1 -4 1 3 0 -1 -1 2 -9 4 10 -5 0 1 -3 7 1 1 5
-5 -4 -5 -4 3 -5 -3 -4 -1 2 0 -4 -2 2 -1 1 2 2 2 -3 1 8 2 -1 -5 8 -0 -6 8 3 4 0 1 -3 2 -0 -17 -5 -7 -2 1 -9 3 -2 12 4 -13
-0 -2 4 3 1 3 -3 3 -2 3 -3 1 -2 0 -1 2 1 1 0 6 0 4 4 3 3 3 -2 2 -0 -1 -2 -1 3 0 9 6 5 2 -30 -0 5 -15 -7 1 2 5 10
-3 -2 -2 -6 -0 -3 -1 -0 1 1 -1 -2 1 0 -1 -11 3 4 1 2 3 2 -3 -4 -0 4 8 4 -2 1 -0 -0 2 2 12 2 12 17 -17 8 2 -8 0 -0 -2 1 -1
1 1 -1 -1 -2 1 -1 -0 1 2 5 2 0 -0 5 -8 1 -2 6 -0 5 7 -0 2 0 -0 -3 2 -2 -10 -9 -11 -8 -8 -1 8 27 0 2 2 -25 -8 -3 3 11 -11 -1
1 1 1 1 -3 0 1 2 2 0 -1 1 5 2 3 3 -8 2 -1 2 -3 1 3 5 3 2 6 -1 7 -1 -4 -4 -8 -7 1 5 8 17 9 3 -2 -4 -2 -3 6 -14 -6
-3 3 0 3 -0 1 1 2 3 1 -1 -2 -0 -1 1 -4 -1 -3 -1 0 -0 2 -7 0 1 0 4 3 0 4 -10 2 -3 -6 -3 3 2 -8 2 5 -7 -3 1 0 8 -12 4
-3 3 1 1 4 1 1 -3 1 -0 -2 5 12 -2 2 -5 6 -2 6 -2 -1 1 1 1 -2 -9 -8 -1 6 2 4 1 -2 -1 -6 10 11 -2 8 8 -9 -5 -3 9 11 1 -6
1 1 4 2 -3 3 4 2 -2 -1 -3 -2 -9 -1 -4 -6 -4 -2 8 2 6 -1 4 5 3 5 16 8 9 4 4 7 12 -8 4 -5 7 5 6 -12 2 3 3 14 4 -1 -1
Height
3193 3192 3191 3190 3188 3186 3185 3183 3181 3179 3177 3175 3172 3170 3167 3165 3165 3165 3165 3165 3166 3166 3165 3165 3164 3162 3161 3160 3159 3156 3154 3152 3150 3147 3145 3144 3142 3141 3140 3139 3138 3137 3137 3136 3135 3134 3133
3194 3193 3193 3191 3190 3188 3186 3185 3183 3182 3180 3178 3175 3173 3171 3169 3168 3168 3168 3168 3168 3167 3167 3167 3165 3164 3162 3162 3159 3156 3154 3153 3150 3149 3147 3145 3143 3142 3140 3140 3139 3139 3138 3137 3136 3134 3132
3196 3195 3195 3193 3192 3190 3189 3187 3186 3184 3182 3180 3178 3176 3174 3173 3171 3171 3171 3170 3170 3169 3168 3167 3166 3165 3163 3163 3159 3157 3155 3153 3151 3150 3149 3147 3145 3144 3142 3141 3140 3139 3139 3137 3136 3134 3131
3197 3196 3196 3195 3194 3192 3191 3189 3187 3186 3184 3182 3181 3178 3177 3175 3174 3173 3172 3172 3171 3170 3169 3168 3167 3165 3164 3162 3160 3158 3156 3154 3153 3151 3149 3148 3146 3145 3143 3142 3141 3139 3139 3137 3135 3133 3131
3198 3198 3197 3197 3196 3194 3192 3191 3189 3187 3186 3185 3183 3181 3179 3177 3175 3174 3173 3172 3172 3171 3170 3168 3168 3166 3165 3163 3161 3159 3157 3155 3153 3151 3150 3148 3147 3145 3143 3141 3141 3140 3138 3136 3134 3131 3129
3200 3199 3199 3198 3197 3195 3194 3192 3190 3189 3187 3186 3184 3183 3181 3179 3177 3176 3174 3173 3173 3172 3171 3170 3168 3169 3166 3164 3161 3160 3158 3155 3154 3152 3151 3150 3147 3146 3145 3143 3141 3139 3136 3135 3131 3130 3126
3201 3200 3199 3199 3198 3196 3194 3193 3191 3190 3188 3186 3185 3184 3182 3180 3179 3177 3175 3174 3176 3175 3172 3171 3170 3167 3165 3164 3162 3160 3158 3157 3155 3153 3152 3150 3149 3146 3144 3142 3141 3138 3135 3132 3130 3127 3122
3201 3201 3200 3200 3199 3197 3195 3193 3192 3191 3189 3187 3186 3184 3182 3181 3179 3177 3176 3174 3173 3175 3173 3171 3169 3167 3165 3164 3163 3160 3159 3158 3156 3153 3152 3151 3148 3146 3144 3143 3140 3138 3134 3130 3126 3124 3121
3201 3201 3200 3200 3198 3197 3196 3194 3192 3191 3189 3187 3186 3184 3183 3181 3179 3178 3176 3175 3173 3173 3173 3172 3170 3168 3167 3166 3163 3161 3160 3158 3156 3154 3152 3150 3149 3146 3144 3142 3140 3137 3134 3129 3126 3121 3118
3201 3201 3200 3199 3198 3197 3196 3194 3192 3190 3189 3187 3185 3184 3182 3180 3181 3177 3176 3174 3172 3172 3173 3173 3170 3168 3167 3164 3164 3161 3159 3159 3156 3155 3152 3151 3149 3146 3144 3141 3138 3135 3133 3128 3124 3121 3119
3201 3200 3200 3199 3198 3197 3195 3194 3192 3190 3189 3187 3185 3183 3182 3180 3178 3177 3176 3173 3172 3173 3173 3172 3169 3168 3165 3166 3164 3161 3159 3157 3156 3154 3155 3152 3148 3145 3142 3139 3137 3135 3129 3124 3120 3118 3117
3200 3200 3199 3198 3197 3196 3195 3193 3192 3189 3188 3186 3185 3183 3181 3179 3177 3176 3174 3173 3173 3174 3169 3169 3168 3167 3166 3164 3163 3160 3159 3157 3155 3154 3152 3149 3147 3144 3141 3138 3135 3132 3127 3121 3118 3116 3114
3198 3198 3197 3197 3197 3196 3195 3193 3191 3189 3187 3185 3183 3182 3180 3178 3177 3175 3174 3173 3174 3170 3170 3169 3166 3165 3165 3163 3161 3160 3158 3156 3155 3153 3150 3148 3146 3143 3141 3137 3134 3131 3127 3122 3121 3118 3114
3195 3195 3195 3195 3195 3194 3193 3192 3190 3189 3187 3185 3183 3181 3179 3177 3175 3174 3173 3173 3171 3169 3167 3166 3165 3164 3164 3162 3160 3158 3157 3155 3153 3151 3149 3146 3143 3142 3140 3137 3133 3129 3130 3129 3128 3124 3115
3190 3191 3192 3192 3192 3191 3190 3190 3188 3187 3186 3184 3181 3179 3178 3176 3174 3173 3173 3171 3168 3167 3167 3165 3164 3163 3162 3161 3160 3157 3155 3153 3152 3150 3150 3146 3141 3139 3136 3134 3133 3128 3128 3129 3125 3121 3117
3186 3187 3187 3187 3187 3187 3187 3186 3185 3184 3183 3181 3179 3177 3176 3174 3172 3171 3171 3169 3167 3166 3165 3164 3163 3162 3160 3159 3158 3156 3153 3151 3149 3148 3146 3144 3139 3135 3134 3132 3130 3128 3127 3126 3125 3122 3117
3180 3181 3182 3182 3182 3182 3182 3182 3181 3180 3179 3178 3177 3175 3174 3172 3170 3169 3167 3166 3164 3163 3163 3163 3160 3159 3158 3157 3155 3154 3151 3149 3147 3145 3143 3141 3139 3135 3132 3127 3124 3125 3124 3123 3123 3120 3116
3175 3175 3176 3177 3177 3177 3177 3177 3177 3176 3175 3174 3173 3172 3170 3169 3169 3165 3163 3162 3162 3160 3160 3159 3158 3156 3154 3153 3152 3150 3148 3147 3145 3143 3140 3139 3135 3126 3126 3122 3119 3118 3118 3119 3119 3117 3113
3168 3169 3170 3171 3171 3171 3171 3172 3171 3171 3170 3169 3168 3167 3166 3165 3163 3161 3160 3159 3158 3157 3156 3155 3154 3152 3151 3150 3149 3146 3144 3144 3142 3141 3139 3136 3132 3125 3120 3121 3118 3115 3115 3114 3113 3110 3102
3162 3163 3164 3164 3166 3166 3165 3166 3166 3166 3165 3165 3164 3162 3161 3160 3159 3158 3156 3155 3153 3152 3152 3151 3150 3149 3148 3147 3145 3142 3141 3140 3139 3137 3135 3132 3126 3124 3120 3118 3115 3109 3107 3106 3107 3101 3093
3154 3156 3157 3157 3157 3158 3159 3159 3160 3160 3159 3159 3158 3156 3156 3154 3154 3153 3152 3151 3149 3149 3148 3147 3145 3145 3145 3142 3139 3138 3136 3134 3132 3131 3128 3126 3117 3115 3107 3107 3103 3097 3092 3093 3091 3083 3088
3147 3147 3148 3150 3150 3150 3151 3152 3153 3153 3153 3153 3152 3152 3150 3149 3148 3147 3146 3145 3145 3144 3143 3142 3140 3140 3138 3136 3136 3134 3131 3129 3126 3124 3121 3117 3110 3105 3093 3096 3092 3083 3081 3075 3072 3067 3068
3138 3140 3140 3141 3142 3142 3143 3144 3145 3145 3145 3144 3144 3143 3143 3141 3140 3140 3140 3139 3138 3137 3136 3135 3135 3132 3131 3130 3128 3126 3123 3121 3120 3115 3113 3109 3104 3099 3087 3087 3083 3072 3065 3064 3061 3058 3057
3128 3129 3131 3131 3133 3133 3133 3133 3133 3134 3134 3134 3134 3134 3132 3128 3133 3134 3132 3132 3133 3132 3129 3130 3129 3127 3127 3122 3119 3116 3113 3110 3108 3106 3105 3098 3095 3092 3083 3084 3079 3059 3056 3055 3053 3052 3051
3120 3120 3120 3121 3122 3123 3124 3124 3123 3124 3124 3124 3125 3124 3122 3119 3123 3126 3126 3125 3124 3124 3122 3120 3122 3120 3117 3115 3112 3106 3102 3099 3095 3095 3093 3090 3088 3082 3079 3072 3061 3052 3055 3053 3049 3042 3042
3110 3112 3112 3113 3114 3116 3116 3117 3116 3116 3116 3117 3117 3117 3115 3112 3110 3117 3117 3118 3116 3116 3115 3113 3113 3112 3110 3107 3104 3100 3097 3092 3087 3084 3081 3081 3079 3076 3070 3063 3055 3047 3047 3046 3041 3034 3036
3099 3102 3104 3105 3106 3107 3108 3109 3110 3109 3109 3110 3111 3109 3108 3104 3102 3109 3109 3109 3109 3108 3107 3106 3104 3104 3103 3099 3096 3093 3088 3086 3080 3077 3073 3073 3068 3064 3058 3053 3044 3040 3040 3039 3039 3035 3030
3089 3090 3093 3095 3096 3098 3098 3100 3102 3103 3102 3102 3103 3103 3101 3097 3095 3099 3099 3100 3102 3102 3100 3099 3097 3094 3094 3090 3086 3083 3076 3075 3070 3067 3067 3066 3062 3055 3050 3047 3040 3037 3034 3035 3029 3024 3023
3080 3080 3082 3084 3086 3088 3089 3091 3092 3094 3095 3094 3096 3096 3094 3091 3087 3088 3090 3092 3094 3093 3092 3090 3089 3088 3085 3080 3077 3074 3071 3067 3063 3060 3061 3058 3055 3050 3047 3038 3036 3029 3027 3023 3020 3017 3015